Погода в Воротынске

Россия / Орловская область     52°30′23″N   37°38′06″E
темп.,
°C
ветер,
м/с
пор.,
м/с
влажн.,
%
обл.,
%
осадки,
мм/ч
давл.,
гПа
погр.,
м
15 мая, сб
сб1500:00+15ююв349699 6.2 101090
03:00+15ю339677 6.4 100946
06:00+15ююз369342 0.0 1009142
09:00+18ююз597586 0.0 1011552
12:00+20ююз68614 0.0 10111098
15:00+21ююз69542 0.0 10112116
18:00+19юз610683 0.4 1012688
21:00+15ююз36831 0.4 1012107
16 мая, вс
вс1600:00+13юз35870 0.0 101374
03:00+12ююз229051 0.0 101426
06:00+13ю238726 0.0 101568
09:00+18ю35684 0.0 1015513
12:00+22ю565323 0.0 10141957
15:00+23ююз4548100 0.0 10142040
18:00+23ю125821 0.0 1013851
21:00+17всв336856 0.0 101319
17 мая, пн
пн1700:00+15всв487223 0.1 1013126
03:00+14всв4129181 2.0 1013225
06:00+15всв4119325 0.0 1012243
09:00+20вюв696969 0.0 1011379
12:00+24вюв712520 0.0 1010902
15:00+26вюв713525 0.0 10092153
18:00+23юв713619 0.0 1008587
21:00+19вюв5147688 0.0 1008310
18 мая, вт
вт1800:00+17вюв5137730 0.0 1008282
03:00+15вюв498280 0.0 1007167
06:00+15вюв378799 0.0 1007177
09:00+20ююв587473 0.0 1007617
12:00+23ююв796340 0.0 10071331
15:00+22ю696587 0.4 10061373
18:00+19ю611775 1.4 1006774
21:00+16ю411905 1.4 1006375
19 мая, ср
ср1900:00+14ююв411951 0.0 1006322
03:00+14ююв6129199 0.1 1006453
06:00+14ююз5990100 0.0 1007551
09:00+15юз5778100 0.2 1009724
12:00+18ююз796051 0.1 10091672
15:00+17юз586398 0.2 10101345
18:00+17ююз58640 0.2 10101032
21:00+13ююз4118083 0.4 1011245